EJA176 KRDU-KILM

Flight info

Callsign EJA176
Flight time 0h 27m
Altitude 19000
Route ROZBO5 ROZBO
Aircraft CL60/M-SADE3FGHIJ3J4J7P2RWXY/HB1D1

Departure

Time 2026-05-07 00:09
Airport Raleigh-Durham International Airport (KRDU)

Arrival

Time 2026-05-07 00:37
Airport Wilmington International Airport (KILM)
Time Latitude Longitude Altitude Speed Heading
2026-05-06 23:58 35.87958 -78.78487 425 ft 0 kts 225°
2026-05-07 00:06 35.87958 -78.78488 425 ft 1 kts 225°
2026-05-07 00:06 35.87914 -78.78501 425 ft 9 kts 136°
2026-05-07 00:06 35.87876 -78.78429 428 ft 10 kts 137°
2026-05-07 00:07 35.87830 -78.78361 430 ft 10 kts 96°
2026-05-07 00:07 35.87883 -78.78278 428 ft 15 kts 46°
2026-05-07 00:07 35.87972 -78.78168 424 ft 21 kts 44°
2026-05-07 00:07 35.88003 -78.78082 422 ft 11 kts 113°
2026-05-07 00:08 35.87988 -78.78050 422 ft 0 kts 128°
2026-05-07 00:08 35.87986 -78.78046 422 ft 3 kts 128°
2026-05-07 00:08 35.87933 -78.77975 419 ft 15 kts 142°
2026-05-07 00:08 35.87883 -78.77981 420 ft 8 kts 222°
2026-05-07 00:09 35.87806 -78.78075 424 ft 41 kts 225°
2026-05-07 00:09 35.87367 -78.78620 427 ft 135 kts 225°
2026-05-07 00:09 35.86575 -78.79612 835 ft 175 kts 225°
2026-05-07 00:09 35.85670 -78.80526 1959 ft 177 kts 208°
2026-05-07 00:10 35.84514 -78.80956 3183 ft 180 kts 198°
2026-05-07 00:10 35.83324 -78.81372 4253 ft 189 kts 201°
2026-05-07 00:10 35.82014 -78.81826 5362 ft 204 kts 201°
2026-05-07 00:10 35.80629 -78.82278 6317 ft 219 kts 201°
2026-05-07 00:11 35.79118 -78.82759 7364 ft 231 kts 201°
2026-05-07 00:11 35.77537 -78.82983 8668 ft 244 kts 181°
2026-05-07 00:11 35.75776 -78.82361 9286 ft 286 kts 164°
2026-05-07 00:11 35.73865 -78.81388 10198 ft 305 kts 164°
2026-05-07 00:12 35.71901 -78.80403 11299 ft 313 kts 165°
2026-05-07 00:12 35.69841 -78.79382 12202 ft 327 kts 165°
2026-05-07 00:12 35.67690 -78.78326 12502 ft 333 kts 166°
2026-05-07 00:12 35.65568 -78.77278 12795 ft 330 kts 165°
2026-05-07 00:13 35.63331 -78.76194 13293 ft 356 kts 166°
2026-05-07 00:13 35.60978 -78.75058 14068 ft 370 kts 165°
2026-05-07 00:13 35.58581 -78.73899 14929 ft 379 kts 165°
2026-05-07 00:13 35.56103 -78.72705 15820 ft 387 kts 165°
2026-05-07 00:14 35.53567 -78.71485 16676 ft 394 kts 164°
2026-05-07 00:14 35.50970 -78.70438 17540 ft 391 kts 175°
2026-05-07 00:14 35.48302 -78.69997 18365 ft 392 kts 180°
2026-05-07 00:14 35.45552 -78.69603 19076 ft 400 kts 179°
2026-05-07 00:15 35.42722 -78.69195 19289 ft 413 kts 179°
2026-05-07 00:15 35.39883 -78.68788 19233 ft 409 kts 180°
2026-05-07 00:15 35.37095 -78.68385 19379 ft 402 kts 180°
2026-05-07 00:15 35.34288 -78.67978 19360 ft 404 kts 180°
2026-05-07 00:16 35.31470 -78.67573 19335 ft 410 kts 179°
2026-05-07 00:16 35.28616 -78.67148 19065 ft 417 kts 179°
2026-05-07 00:16 35.25726 -78.66708 18996 ft 409 kts 179°
2026-05-07 00:16 35.22883 -78.66267 18879 ft 409 kts 179°
2026-05-07 00:17 35.20090 -78.65844 18910 ft 408 kts 179°
2026-05-07 00:17 35.17262 -78.65429 18953 ft 410 kts 179°
2026-05-07 00:17 35.14394 -78.65025 18944 ft 412 kts 179°
2026-05-07 00:17 35.11560 -78.64635 18956 ft 405 kts 180°
2026-05-07 00:18 35.08767 -78.64246 18407 ft 398 kts 180°
2026-05-07 00:18 35.05994 -78.63866 17566 ft 400 kts 180°
2026-05-07 00:18 35.03258 -78.63488 16937 ft 395 kts 180°
2026-05-07 00:18 35.00520 -78.63107 16398 ft 387 kts 180°
2026-05-07 00:19 34.97860 -78.62738 15844 ft 384 kts 180°
2026-05-07 00:19 34.95239 -78.62375 15239 ft 379 kts 180°
2026-05-07 00:19 34.92618 -78.61999 14697 ft 373 kts 179°
2026-05-07 00:19 34.90057 -78.61636 14056 ft 370 kts 179°
2026-05-07 00:20 34.87507 -78.61276 13455 ft 366 kts 179°
2026-05-07 00:20 34.84956 -78.60927 12866 ft 362 kts 180°
2026-05-07 00:20 34.82484 -78.60602 12313 ft 357 kts 179°
2026-05-07 00:20 34.80035 -78.60229 11719 ft 355 kts 173°
2026-05-07 00:21 34.77764 -78.59007 11492 ft 355 kts 147°
2026-05-07 00:21 34.76168 -78.56811 11462 ft 344 kts 120°
2026-05-07 00:21 34.75266 -78.54143 11406 ft 332 kts 110°
2026-05-07 00:21 34.74490 -78.51497 11313 ft 336 kts 109°
2026-05-07 00:22 34.73736 -78.48780 11052 ft 334 kts 110°
2026-05-07 00:22 34.72944 -78.46135 10994 ft 328 kts 111°
2026-05-07 00:22 34.72146 -78.43515 10986 ft 330 kts 110°
2026-05-07 00:22 34.71379 -78.40920 10981 ft 323 kts 110°
2026-05-07 00:23 34.70625 -78.38359 10975 ft 320 kts 110°
2026-05-07 00:23 34.69884 -78.35812 10979 ft 321 kts 110°
2026-05-07 00:23 34.69138 -78.33257 10981 ft 320 kts 111°
2026-05-07 00:23 34.68397 -78.30708 10989 ft 313 kts 110°
2026-05-07 00:24 34.67671 -78.28225 10983 ft 310 kts 110°
2026-05-07 00:24 34.66969 -78.25803 10938 ft 297 kts 110°
2026-05-07 00:24 34.66295 -78.23460 10654 ft 294 kts 110°
2026-05-07 00:24 34.65619 -78.21108 10358 ft 291 kts 110°
2026-05-07 00:25 34.64946 -78.18797 10033 ft 290 kts 111°
2026-05-07 00:25 34.64280 -78.16496 9719 ft 290 kts 110°
2026-05-07 00:25 34.63606 -78.14177 9391 ft 288 kts 110°
2026-05-07 00:25 34.62946 -78.11897 9077 ft 286 kts 110°
2026-05-07 00:26 34.62281 -78.09607 8732 ft 285 kts 110°
2026-05-07 00:26 34.61631 -78.07353 8417 ft 283 kts 110°
2026-05-07 00:26 34.60977 -78.05070 8071 ft 281 kts 110°
2026-05-07 00:26 34.60353 -78.02880 8033 ft 267 kts 110°
2026-05-07 00:27 34.59759 -78.00784 7824 ft 259 kts 110°
2026-05-07 00:27 34.59184 -77.98740 7460 ft 257 kts 110°
2026-05-07 00:27 34.58609 -77.96684 7094 ft 255 kts 110°
2026-05-07 00:27 34.58039 -77.94666 6801 ft 250 kts 110°
2026-05-07 00:28 34.57477 -77.92683 6426 ft 249 kts 110°
2026-05-07 00:28 34.56914 -77.90681 6041 ft 248 kts 110°
2026-05-07 00:28 34.56372 -77.88726 5733 ft 244 kts 110°
2026-05-07 00:28 34.55847 -77.86782 5432 ft 240 kts 110°
2026-05-07 00:29 34.55331 -77.84849 5071 ft 239 kts 110°
2026-05-07 00:29 34.54826 -77.82958 4697 ft 236 kts 115°
2026-05-07 00:30 34.51454 -77.79176 3783 ft 215 kts 150°
2026-05-07 00:30 34.50261 -77.78127 3462 ft 208 kts 150°
2026-05-07 00:30 34.49134 -77.77119 3190 ft 195 kts 150°
2026-05-07 00:30 34.48064 -77.76137 2834 ft 189 kts 150°
2026-05-07 00:31 34.47037 -77.75186 2499 ft 186 kts 150°
2026-05-07 00:31 34.46010 -77.74233 2192 ft 180 kts 150°
2026-05-07 00:31 34.45011 -77.73319 2088 ft 180 kts 152°
2026-05-07 00:31 34.43886 -77.72900 2083 ft 166 kts 189°
2026-05-07 00:32 34.42760 -77.73209 2095 ft 164 kts 200°
2026-05-07 00:32 34.41662 -77.73604 2075 ft 165 kts 200°
2026-05-07 00:32 34.40577 -77.74008 2054 ft 163 kts 199°
2026-05-07 00:32 34.39480 -77.74423 2068 ft 164 kts 200°
2026-05-07 00:33 34.38396 -77.74850 2069 ft 163 kts 203°
2026-05-07 00:33 34.37418 -77.75526 2072 ft 161 kts 219°
2026-05-07 00:33 34.36644 -77.76521 2098 ft 161 kts 231°
2026-05-07 00:33 34.35995 -77.77645 2072 ft 163 kts 232°
2026-05-07 00:34 34.35298 -77.78719 2036 ft 160 kts 227°
2026-05-07 00:34 34.34564 -77.79743 2084 ft 159 kts 227°
2026-05-07 00:34 34.33816 -77.80775 1930 ft 162 kts 229°
2026-05-07 00:34 34.33073 -77.81760 1915 ft 159 kts 224°
2026-05-07 00:35 34.32309 -77.82735 1911 ft 158 kts 225°
2026-05-07 00:35 34.31612 -77.83691 1690 ft 147 kts 227°
2026-05-07 00:35 34.30946 -77.84566 1543 ft 133 kts 227°
2026-05-07 00:35 34.30367 -77.85358 1291 ft 123 kts 224°
2026-05-07 00:36 34.29793 -77.86087 866 ft 119 kts 223°
2026-05-07 00:36 34.29306 -77.86809 556 ft 109 kts 229°
2026-05-07 00:36 34.28805 -77.87494 335 ft 110 kts 226°
2026-05-07 00:36 34.28296 -77.88206 250 ft 112 kts 226°
2026-05-07 00:37 34.27736 -77.88938 74 ft 126 kts 228°
2026-05-07 00:37 34.27187 -77.89674 25 ft 94 kts 232°
2026-05-07 00:37 34.26976 -77.89959 27 ft 28 kts 227°
2026-05-07 00:37 34.26830 -77.90163 27 ft 34 kts 228°
2026-05-07 00:38 34.26791 -77.90241 29 ft 15 kts 220°
2026-05-07 00:38 34.26652 -77.90403 27 ft 36 kts 238°
2026-05-07 00:38 34.26673 -77.90475 27 ft 14 kts 332°
2026-05-07 00:38 34.26710 -77.90493 28 ft 0 kts 343°
2026-05-07 00:39 34.26734 -77.90501 28 ft 16 kts 343°
2026-05-07 00:39 34.26765 -77.90549 29 ft 17 kts 254°
2026-05-07 00:39 34.26647 -77.90710 28 ft 27 kts 230°
2026-05-07 00:39 34.26519 -77.90882 27 ft 27 kts 224°
2026-05-07 00:40 34.26490 -77.91090 27 ft 27 kts 325°